User: anonymous   Login
Location: Unspecified
(0.0000°N, 0.0000°E)
Time: 23:57:37
(UTC+01:00)
Language:

CZ-4B R/B - Orbit

View from above orbital plane
View from above orbital plane
View from above satellite
View from above satellite

Ground track
Ground track

The orbit data is extracted from the following two-line orbital elements,

1 33410U 08053C   17023.50644877  .00000758  00000-0  60398-4 0  9991
2 33410  97.7096 355.5879 0119982 316.8726  42.3144 14.98097816449127
Epoch (UTC): 23 January 2017 12:09:17
Eccentricity: 0.0119982
inclination: 97.7096°
perigee height: 489 km
apogee height: 656 km
right ascension of ascending node: 355.5879°
argument of perigee: 316.8726°
revolutions per day: 14.98097816
mean anomaly at epoch: 42.3144°
orbit number at epoch: 44912

The dashed part of the orbit path shows where the satellite is in the earth's shadow,  

DLR